TimeCST,TemperatureF,Dew PointF,Humidity,Sea Level PressureIn,VisibilityMPH,Wind Direction,Wind SpeedMPH,Gust SpeedMPH,PrecipitationIn,Events,Conditions,WindDirDegrees,DateUTC
12:53 AM,25.0,12.9,60,30.23,10.0,WSW,6.9,-,N/A,,Clear,250,2012-12-04 06:53:00
1:53 AM,25.0,12.0,58,30.23,10.0,West,5.8,-,N/A,,Clear,260,2012-12-04 07:53:00
2:53 AM,21.9,10.9,63,30.26,7.0,WSW,8.1,-,N/A,,Clear,250,2012-12-04 08:53:00
3:53 AM,26.1,12.9,58,30.27,10.0,WSW,11.5,-,N/A,,Clear,250,2012-12-04 09:53:00
4:53 AM,26.1,12.9,58,30.29,10.0,West,11.5,-,N/A,,Clear,280,2012-12-04 10:53:00
5:53 AM,24.1,12.9,62,30.31,10.0,West,12.7,-,N/A,,Clear,270,2012-12-04 11:53:00
6:53 AM,21.9,12.9,68,30.36,10.0,WSW,4.6,-,N/A,,Clear,250,2012-12-04 12:53:00
7:53 AM,21.9,12.0,66,30.39,10.0,West,11.5,-,N/A,,Clear,260,2012-12-04 13:53:00
8:53 AM,28.9,12.0,49,30.40,10.0,West,10.4,-,N/A,,Clear,270,2012-12-04 14:53:00
9:53 AM,34.0,12.9,42,30.40,10.0,West,12.7,-,N/A,,Clear,270,2012-12-04 15:53:00
10:53 AM,42.1,14.0,32,30.39,10.0,West,10.4,-,N/A,,Clear,270,2012-12-04 16:53:00
11:53 AM,50.0,15.1,25,30.37,10.0,West,6.9,-,N/A,,Clear,270,2012-12-04 17:53:00
12:53 PM,54.0,16.0,22,30.33,10.0,West,5.8,-,N/A,,Clear,260,2012-12-04 18:53:00
1:53 PM,55.9,15.1,20,30.30,10.0,WSW,8.1,-,N/A,,Clear,250,2012-12-04 19:53:00
2:53 PM,57.9,14.0,18,30.28,10.0,West,5.8,-,N/A,,Clear,260,2012-12-04 20:53:00
3:53 PM,57.9,14.0,18,30.27,10.0,SSW,6.9,-,N/A,,Clear,210,2012-12-04 21:53:00
4:53 PM,55.0,14.0,20,30.26,10.0,South,3.5,-,N/A,,Clear,170,2012-12-04 22:53:00
5:53 PM,48.9,12.9,24,30.27,10.0,SSE,4.6,-,N/A,,Clear,150,2012-12-04 23:53:00
6:53 PM,42.1,12.9,31,30.27,10.0,South,5.8,-,N/A,,Clear,190,2012-12-05 00:53:00
7:53 PM,42.1,12.9,31,30.27,10.0,South,9.2,-,N/A,,Clear,180,2012-12-05 01:53:00
8:53 PM,42.1,15.1,34,30.27,10.0,SSW,9.2,-,N/A,,Clear,200,2012-12-05 02:53:00
9:53 PM,39.9,15.1,36,30.26,10.0,SSW,9.2,-,N/A,,Clear,210,2012-12-05 03:53:00
10:53 PM,37.9,16.0,41,30.25,10.0,SW,6.9,-,N/A,,Clear,230,2012-12-05 04:53:00
11:53 PM,37.9,16.0,41,30.23,10.0,Calm,Calm,-,N/A,,Clear,0,2012-12-05 05:53:00